Venice, Italy

5:17 AM CEST on September 20, 2017 (GMT +0200)
Tessera

Weather History for LIPZ - October, 2013

Change the Weather History Date:

Saturday, October 5, 2013

  Actual Average Record
Temperature  
Mean Temperature 54 °F -  
Max Temperature 57 °F 63 °F 78 °F (2011)
Min Temperature 50 °F 48 °F 42 °F (2008)
Degree Days  
Heating Degree Days 12    
Growing Degree Days 4 (Base 50)    
Moisture  
Dew Point 46 °F    
Average Humidity 76    
Maximum Humidity 82    
Minimum Humidity 67    
Precipitation  
Precipitation 0.00 in 0.09 in - ()
Sea Level Pressure  
Sea Level Pressure 30.18 in    
Wind  
Wind Speed 5 mph ()    
Max Wind Speed 9 mph    
Max Gust Speed -    
Visibility 6.0 miles    
Events Rain    
Averages and records for this station are not official NWS values.
T = Trace of Precipitation, MM = Missing Value Source: Averaged Metar Reports

Daily Weather History Graph

Daily Weather History Graph

Search for Another Location

Airport or City:

Trip Planner

Search our weather history database for the weather conditions in past years. The results will help you decide how hot, cold, wet, or windy it might be!

Date:

Astronomy

Oct. 05, 2013 Rise Set
Actual Time 7:13 AM CEST 6:43 PM CEST
Civil Twilight 6:44 AM CEST 7:12 PM CEST
Nautical Twilight 6:10 AM CEST 7:47 PM CEST
Astronomical Twilight 5:35 AM CEST 8:21 PM CEST
Moon 7:37 AM CEST (10/5) 6:47 PM CEST (10/5)
Length of Visible Light 12h 28m
Length of Day
11h 29m
New Moon, 0% of the Moon is Illuminated
Oct 5
New Moon
Oct 12
First Quarter
Oct 19
Full
Oct 27
Last Quarter
Nov 3
New

Hourly Weather History & Observations

Time (CEST) Temp. Dew Point Humidity Pressure Visibility Wind Dir Wind Speed Gust Speed Precip Events Conditions
12:20 AM 53.6 °F 44.6 °F 72% 30.30 in 6.2 mi Variable 3.5 mph - N/A   Mostly Cloudy
12:50 AM 53.6 °F 42.8 °F 67% 30.30 in 6.2 mi Variable 3.5 mph - N/A   Mostly Cloudy
1:20 AM 53.6 °F 42.8 °F 67% 30.27 in 6.2 mi Variable 3.5 mph - N/A   Mostly Cloudy
2:50 AM 53.6 °F 42.8 °F 67% 30.27 in 6.2 mi Variable 3.5 mph - N/A   Mostly Cloudy
3:20 AM 51.8 °F 41.0 °F 67% 30.24 in 6.2 mi Variable 3.5 mph - N/A   Mostly Cloudy
3:50 AM 51.8 °F 41.0 °F 67% 30.24 in 6.2 mi Variable 3.5 mph - N/A   Mostly Cloudy
4:20 AM 51.8 °F 41.0 °F 67% 30.21 in 6.2 mi NNE 4.6 mph - N/A   Mostly Cloudy
4:50 AM 51.8 °F 41.0 °F 67% 30.24 in 6.2 mi Variable 3.5 mph - N/A   Mostly Cloudy
6:20 AM 51.8 °F 41.0 °F 67% 30.21 in 6.2 mi North 4.6 mph - N/A   Mostly Cloudy
6:50 AM 50.0 °F 41.0 °F 71% 30.21 in 6.2 mi Variable 3.5 mph - N/A Rain Light Rain
7:20 AM 51.8 °F 42.8 °F 71% 30.18 in 6.2 mi NNE 5.8 mph - N/A   Mostly Cloudy
7:50 AM 50.0 °F 42.8 °F 76% 30.15 in 6.2 mi NNE 5.8 mph - N/A   Mostly Cloudy
8:20 AM 50.0 °F 42.8 °F 76% 30.18 in 5.0 mi North 4.6 mph - N/A   Mostly Cloudy
8:50 AM 50.0 °F 42.8 °F 76% 30.21 in 6.2 mi North 5.8 mph - N/A Rain Light Rain
9:20 AM 50.0 °F 42.8 °F 76% 30.18 in 6.2 mi North 9.2 mph - N/A Rain Light Rain
9:50 AM 50.0 °F 44.6 °F 82% 30.18 in 5.6 mi North 9.2 mph - N/A Rain Light Rain
10:20 AM 50.0 °F 44.6 °F 82% 30.18 in 6.2 mi North 6.9 mph - N/A   Mostly Cloudy
10:50 AM 50.0 °F 44.6 °F 82% 30.18 in 6.2 mi North 8.1 mph - N/A   Mostly Cloudy
11:20 AM 51.8 °F 44.6 °F 76% 30.21 in 6.2 mi NNE 8.1 mph - N/A   Mostly Cloudy
11:50 AM 51.8 °F 44.6 °F 76% 30.18 in 6.2 mi NE 8.1 mph - N/A   Mostly Cloudy
12:20 PM 51.8 °F 44.6 °F 76% 30.18 in 5.6 mi North 6.9 mph - N/A   Mostly Cloudy
12:50 PM 53.6 °F 46.4 °F 77% 30.18 in 6.2 mi North 6.9 mph - N/A   Mostly Cloudy
1:20 PM 53.6 °F 46.4 °F 77% 30.18 in 5.6 mi NNE 6.9 mph - N/A   Mostly Cloudy
1:50 PM 55.4 °F 48.2 °F 77% 30.18 in 6.2 mi NNE 5.8 mph - N/A   Mostly Cloudy
2:20 PM 55.4 °F 48.2 °F 77% 30.18 in 6.2 mi NE 5.8 mph - N/A   Mostly Cloudy
2:50 PM 57.2 °F 50.0 °F 77% 30.15 in 6.2 mi NE 5.8 mph - N/A   Mostly Cloudy
3:20 PM 57.2 °F 50.0 °F 77% 30.15 in 6.2 mi NE 5.8 mph - N/A   Mostly Cloudy
3:50 PM 57.2 °F 50.0 °F 77% 30.15 in 6.2 mi NE 5.8 mph - N/A   Mostly Cloudy
4:20 PM 57.2 °F 50.0 °F 77% 30.15 in 6.2 mi NE 6.9 mph - N/A   Mostly Cloudy
4:50 PM 57.2 °F 50.0 °F 77% 30.15 in 6.2 mi NE 8.1 mph - N/A   Mostly Cloudy
5:20 PM 57.2 °F 51.8 °F 82% 30.15 in 6.2 mi NE 9.2 mph - N/A   Mostly Cloudy
5:50 PM 57.2 °F 51.8 °F 82% 30.15 in 6.2 mi NE 8.1 mph - N/A   Mostly Cloudy
6:20 PM 57.2 °F 51.8 °F 82% 30.15 in 5.6 mi NE 8.1 mph - N/A   Mostly Cloudy
6:50 PM 57.2 °F 50.0 °F 77% 30.15 in 5.6 mi NNE 6.9 mph - N/A   Mostly Cloudy
7:20 PM 57.2 °F 50.0 °F 77% 30.15 in 5.0 mi NNE 6.9 mph - N/A   Mostly Cloudy
7:50 PM 55.4 °F 50.0 °F 82% 30.12 in 5.6 mi NNE 6.9 mph - N/A   Mostly Cloudy
8:20 PM 55.4 °F 50.0 °F 82% 30.12 in 5.6 mi North 6.9 mph - N/A   Mostly Cloudy
8:50 PM 55.4 °F 48.2 °F 77% 30.15 in 6.2 mi North 5.8 mph - N/A   Mostly Cloudy
9:20 PM 55.4 °F 50.0 °F 82% 30.15 in 6.2 mi North 8.1 mph - N/A   Mostly Cloudy
9:50 PM 55.4 °F 50.0 °F 82% 30.15 in 6.2 mi North 8.1 mph - N/A   Mostly Cloudy
10:20 PM 55.4 °F 50.0 °F 82% 30.15 in 6.2 mi NNE 8.1 mph - N/A   Mostly Cloudy
10:50 PM 55.4 °F 50.0 °F 82% 30.15 in 6.2 mi North 5.8 mph - N/A   Mostly Cloudy
11:20 PM 55.4 °F 50.0 °F 82% 30.15 in 6.2 mi North 6.9 mph - N/A   Mostly Cloudy
11:50 PM 55.4 °F 50.0 °F 82% 30.12 in 5.6 mi North 8.1 mph - N/A   Mostly Cloudy